When you browse on this site, cookies collect data to enhance your experience and personalize the content and advertising you see.
Visit our Privacy Policy to learn more. By continuing to use the site, you agree to this use of cookies and data.

Hourly Weather Townsville

Today, 12 July, Sunday

Time Temperature Precipitation Wind Pressure Humidity
00:00 +20°C° 0 mm 3 mps 755 mmHg 92%
01:00 +19°C° 0 mm 3 mps 754 mmHg 92%
02:00 +19°C° 0 mm 3 mps 754 mmHg 93%
03:00 +19°C° 0 mm 3 mps 754 mmHg 93%
04:00 +19°C° 0 mm 2 mps 754 mmHg 93%
05:00 +19°C° 0 mm 2 mps 754 mmHg 93%
06:00 +18°C° 0 mm 2 mps 754 mmHg 93%
07:00 +18°C° 0 mm 2 mps 755 mmHg 93%
08:00 +20°C° 0 mm 2 mps 755 mmHg 85%
09:00 +23°C° 0 mm 2 mps 755 mmHg 78%
10:00 +25°C° 0 mm 2 mps 755 mmHg 70%
11:00 +26°C° 0 mm 2 mps 754 mmHg 66%
12:00 +27°C° 0 mm 2 mps 754 mmHg 62%
13:00 +27°C° 0 mm 2 mps 753 mmHg 58%
14:00 +27°C° 0 mm 2 mps 753 mmHg 61%
15:00 +26°C° 0 mm 2 mps 753 mmHg 64%
16:00 +25°C° 0 mm 2 mps 753 mmHg 67%
17:00 +24°C° 0 mm 1 mps 753 mmHg 73%
18:00 +23°C° 0 mm 1 mps 753 mmHg 78%
19:00 +20°C° 0 mm 0 mps 754 mmHg 83%
20:00 +22°C° 0 mm 1 mps 754 mmHg 82%
21:00 +22°C° 0 mm 1 mps 755 mmHg 81%
22:00 +21°C° 0 mm 2 mps 755 mmHg 79%
23:00 +21°C° 0 mm 2 mps 755 mmHg 77%

Tomorrow, 13 July, Monday

Time Temperature Precipitation Wind Pressure Humidity
00:00 +20°C° 0 mm 2 mps 755 mmHg 75%
01:00 +20°C° 0 mm 2 mps 755 mmHg 73%
02:00 +20°C° 0 mm 2 mps 755 mmHg 68%
03:00 +19°C° 0 mm 3 mps 755 mmHg 62%
04:00 +19°C° 0 mm 3 mps 755 mmHg 57%
05:00 +18°C° 0 mm 4 mps 755 mmHg 52%
06:00 +18°C° 0 mm 4 mps 756 mmHg 47%
07:00 +17°C° 0 mm 4 mps 756 mmHg 42%
08:00 +19°C° 0 mm 4 mps 756 mmHg 38%
09:00 +20°C° 0 mm 4 mps 757 mmHg 35%
10:00 +22°C° 0 mm 4 mps 757 mmHg 31%
11:00 +23°C° 0 mm 4 mps 756 mmHg 31%
12:00 +25°C° 0 mm 4 mps 756 mmHg 30%
13:00 +26°C° 0 mm 4 mps 755 mmHg 30%
14:00 +26°C° 0 mm 4 mps 755 mmHg 31%
15:00 +26°C° 0 mm 4 mps 755 mmHg 33%
16:00 +26°C° 0 mm 4 mps 755 mmHg 34%
17:00 +25°C° 0 mm 4 mps 755 mmHg 37%
18:00 +22°C° 0 mm 4 mps 756 mmHg 39%
19:00 +21°C° 0 mm 4 mps 756 mmHg 42%
20:00 +20°C° 0 mm 4 mps 757 mmHg 41%
21:00 +20°C° 0 mm 4 mps 757 mmHg 40%
22:00 +20°C° 0 mm 4 mps 758 mmHg 39%
23:00 +19°C° 0 mm 4 mps 757 mmHg 37%

Day after tomorrow, 14 July, Tuesday

Time Temperature Precipitation Wind Pressure Humidity
00:00 +19°C° 0 mm 4 mps 757 mmHg 35%
01:00 +18°C° 0 mm 4 mps 757 mmHg 33%
02:00 +17°C° 0 mm 4 mps 757 mmHg 34%
03:00 +15°C° 0 mm 4 mps 757 mmHg 34%
04:00 +14°C° 0 mm 4 mps 757 mmHg 35%
05:00 +14°C° 0 mm 4 mps 757 mmHg 37%
06:00 +13°C° 0 mm 4 mps 757 mmHg 38%
07:00 +13°C° 0 mm 4 mps 758 mmHg 40%
08:00 +15°C° 0 mm 4 mps 758 mmHg 37%
09:00 +18°C° 0 mm 4 mps 758 mmHg 35%
10:00 +20°C° 0 mm 3 mps 759 mmHg 32%
11:00 +21°C° 0 mm 3 mps 758 mmHg 30%
12:00 +22°C° 0 mm 3 mps 757 mmHg 28%
13:00 +25°C° 0 mm 3 mps 757 mmHg 26%
14:00 +25°C° 0 mm 3 mps 756 mmHg 28%
15:00 +25°C° 0 mm 3 mps 756 mmHg 30%
16:00 +24°C° 0 mm 3 mps 756 mmHg 31%
17:00 +21°C° 0 mm 3 mps 756 mmHg 40%
18:00 +19°C° 0 mm 3 mps 756 mmHg 48%
19:00 +16°C° 0 mm 2 mps 757 mmHg 57%
20:00 +16°C° 0 mm 2 mps 757 mmHg 57%
21:00 +15°C° 0 mm 2 mps 758 mmHg 58%
22:00 +14°C° 0 mm 3 mps 758 mmHg 58%
23:00 +13°C° 0 mm 3 mps 758 mmHg 57%

15 July, Wednesday

Time Temperature Precipitation Wind Pressure Humidity
00:00 +13°C° 0 mm 3 mps 757 mmHg 56%
01:00 +12°C° 0 mm 3 mps 757 mmHg 55%
02:00 +12°C° 0 mm 3 mps 757 mmHg 55%
03:00 +12°C° 0 mm 3 mps 756 mmHg 55%
04:00 +13°C° 0 mm 2 mps 756 mmHg 54%
05:00 +11°C° 0 mm 3 mps 757 mmHg 54%
06:00 +11°C° 0 mm 3 mps 757 mmHg 53%
07:00 +11°C° 0 mm 3 mps 757 mmHg 52%
08:00 +14°C° 0 mm 2 mps 757 mmHg 46%
09:00 +17°C° 0 mm 2 mps 757 mmHg 39%
10:00 +20°C° 0 mm 2 mps 757 mmHg 33%
11:00 +21°C° 0 mm 2 mps 757 mmHg 31%
12:00 +23°C° 0 mm 2 mps 756 mmHg 29%
13:00 +24°C° 0 mm 3 mps 755 mmHg 28%
14:00 +24°C° 0 mm 2 mps 755 mmHg 30%
15:00 +23°C° 0 mm 2 mps 755 mmHg 32%
16:00 +23°C° 0 mm 2 mps 754 mmHg 34%
17:00 +20°C° 0 mm 2 mps 755 mmHg 41%
18:00 +18°C° 0 mm 1 mps 755 mmHg 49%
19:00 +15°C° 0 mm 1 mps 755 mmHg 56%
20:00 +15°C° 0 mm 1 mps 756 mmHg 55%
21:00 +14°C° 0 mm 1 mps 756 mmHg 54%
22:00 +14°C° 0 mm 2 mps 757 mmHg 53%
23:00 +14°C° 0 mm 2 mps 756 mmHg 53%

16 July, Thursday

Time Temperature Precipitation Wind Pressure Humidity
00:00 +14°C° 0 mm 2 mps 756 mmHg 53%
01:00 +13°C° 0 mm 2 mps 756 mmHg 53%
02:00 +13°C° 0 mm 2 mps 756 mmHg 53%
03:00 +13°C° 0 mm 2 mps 756 mmHg 52%
04:00 +13°C° 0 mm 2 mps 756 mmHg 52%
05:00 +12°C° 0 mm 2 mps 756 mmHg 52%
06:00 +12°C° 0 mm 2 mps 756 mmHg 52%
07:00 +11°C° 0 mm 3 mps 757 mmHg 52%
08:00 +14°C° 0 mm 3 mps 757 mmHg 47%
09:00 +17°C° 0 mm 3 mps 757 mmHg 42%
10:00 +20°C° 0 mm 3 mps 757 mmHg 38%
11:00 +21°C° 0 mm 2 mps 757 mmHg 35%
12:00 +23°C° 0 mm 2 mps 756 mmHg 32%
13:00 +25°C° 0 mm 2 mps 755 mmHg 29%
14:00 +24°C° 0 mm 2 mps 755 mmHg 31%
15:00 +24°C° 0 mm 2 mps 754 mmHg 32%
16:00 +24°C° 0 mm 2 mps 754 mmHg 34%
17:00 +21°C° 0 mm 2 mps 754 mmHg 37%
18:00 +20°C° 0 mm 1 mps 755 mmHg 41%
19:00 +16°C° 0 mm 1 mps 755 mmHg 44%
20:00 +16°C° 0 mm 2 mps 755 mmHg 44%
21:00 +15°C° 0 mm 2 mps 756 mmHg 43%
22:00 +14°C° 0 mm 2 mps 756 mmHg 42%
23:00 +13°C° 0 mm 3 mps 756 mmHg 43%

17 July, Friday

Time Temperature Precipitation Wind Pressure Humidity
00:00 +12°C° 0 mm 3 mps 756 mmHg 44%
01:00 +12°C° 0 mm 3 mps 756 mmHg 45%
02:00 +12°C° 0 mm 3 mps 756 mmHg 45%
03:00 +12°C° 0 mm 3 mps 756 mmHg 46%
04:00 +11°C° 0 mm 3 mps 756 mmHg 46%
05:00 +11°C° 0 mm 3 mps 756 mmHg 47%
06:00 +11°C° 0 mm 3 mps 756 mmHg 48%
07:00 +10°C° 0 mm 3 mps 757 mmHg 49%
08:00 +13°C° 0 mm 3 mps 757 mmHg 44%
09:00 +16°C° 0 mm 2 mps 757 mmHg 39%
10:00 +19°C° 0 mm 2 mps 757 mmHg 33%
11:00 +20°C° 0 mm 2 mps 757 mmHg 32%
12:00 +21°C° 0 mm 3 mps 756 mmHg 31%
13:00 +22°C° 0 mm 3 mps 755 mmHg 30%
14:00 +22°C° 0 mm 3 mps 755 mmHg 34%
15:00 +21°C° 0 mm 4 mps 755 mmHg 39%
16:00 +21°C° 0 mm 4 mps 754 mmHg 43%
17:00 +19°C° 0 mm 3 mps 755 mmHg 54%
18:00 +17°C° 0 mm 3 mps 755 mmHg 64%
19:00 +15°C° 0 mm 2 mps 756 mmHg 74%
20:00 +15°C° 0 mm 2 mps 756 mmHg 77%
21:00 +15°C° 0 mm 2 mps 756 mmHg 80%
22:00 +15°C° 0 mm 2 mps 757 mmHg 83%
23:00 +13°C° 0 mm 3 mps 756 mmHg 85%
Show more